STARLINK-37036, 68077

Orbit data source: Space-Track

STARLINK-37036, 68077 is a payload satellite owned by SpaceX/Seattle (US) in LEO that was launched on Wed, 04 Mar 2026 UTC via an FALCON 9 launch vehicle from the Air Force Eastern Test Range (AFETR). Payload-class satellites include a variety of spacecraft equipped with specific instruments for various scientific and technological missions. These include communications satellites like Starlink; space stations such as the ISS; scientific satellites like the Hubble; Earth observation satellites from companies like Planet Labs, Umbra, and HawkEye 360; GPS; miniature CubeSats for education and research; and military/defense satellites.

Loading next visibility...
Identifier
68077, 2026-042J
Orbit
LEO
Country
Flag of USUS
Related business
Manufacturer
SpaceX/Seattle
Mission
Operational Commercial Communications
Bus & Motor
STARLINK V2MO, Unknown motor
Mass
575 kg wet, ~530 kg dry
Launch date (UTC)
2026-03-04 (2 months ago)
Launch vehicle
FALCON 9
Launch site
Air Force Eastern Test Range (AFETR)
Object type
Payload
Rocket body
Debris
Shape & HBR
Box + 2 Pan, 17.7 m
Radar Cross Section
36.964 m²

Expand to show TLE details & history
Last TLE update: 8 hours ago

TLE from 8 hours ago
0 STARLINK-37036
1 68077U 26042J   26119.25003472  .00032402  00000-0  58872-3 0  9998
2 68077  53.1588 303.5791 0000461 141.9945  95.8462 15.49284405  6015
Epoch: 2026-04-29T06:00Z
TLE epoch observation values (Epoch: 2026-04-29T06:00:02.999Z)
Latitude
-42.85187°
Longitude
-139.92346°
Altitude
433.191 km
Speed
7.651 km/s
True Right ascension
11h 09m 12s
True Declination
-42° 40' 20"
Sunlit
Object was in full shadow at epoch
Visualization orbit readout
Latitude
Unknown
Longitude
Unknown
Altitude
Unknown
Speed
Unknown
Apparent Right ascension
Unknown
Apparent Declination
Unknown
Sunlit
N/A
Visualization observer readout
Local Sidereal Time
21:51:29
Azimuth
Unknown
Elevation
Unknown
Doppler factor
Unknown
Orbital elements
Apogee altitude
419.39 km
Perigee altitude
418.764 km
Semi-major axis
6,797.214 km
Eccentricity
0.00005
Inclination
53.1588°
RAAN
303.5791°
Arg. of periapsis
141.9945°
True anomaly
95.85146°
Mean anomaly
95.8462°
Eccentric anomaly
95.84883°
Mean motion
3.87299 °/min
Orbital period
92.95 mins
BSTAR
0.00058872
Loading maneuver chart data...
Computing Atmospheric mass density...
Loading historical data...
Loading historical data...
Loading historical data...
Loading historical data...
Loading historical data...
Loading historical data...
Loading historical data...

Documentation

Showing up to 5 results
|